TimeMST,TemperatureF,Dew PointF,Humidity,Sea Level PressureIn,VisibilityMPH,Wind Direction,Wind SpeedMPH,Gust SpeedMPH,PrecipitationIn,Events,Conditions,WindDirDegrees,DateUTC
12:00 AM,21.2,21.2,100,29.79,1.5,SSE,5.8,-,N/A,,Overcast,160,2011-12-14 07:00:00
12:22 AM,21.2,21.2,100,29.78,0.8,South,4.6,-,N/A,,Mist,180,2011-12-14 07:22:00
12:53 AM,21.2,21.2,100,29.77,0.5,South,5.8,-,N/A,Fog,Light Freezing Fog,180,2011-12-14 07:53:00
1:51 AM,21.2,19.4,93,29.78,0.2,South,4.6,-,N/A,Fog,Light Freezing Fog,190,2011-12-14 08:51:00
1:53 AM,21.9,19.9,92,29.87,0.2,SSW,4.6,-,N/A,Fog,Light Freezing Fog,200,2011-12-14 08:53:00
2:53 AM,21.0,19.0,92,29.87,0.2,SSE,10.4,-,N/A,Fog,Light Freezing Fog,160,2011-12-14 09:53:00
3:07 AM,21.2,19.4,93,29.77,0.5,SSE,10.4,-,N/A,Fog,Light Freezing Fog,160,2011-12-14 10:07:00
3:53 AM,19.0,17.1,92,29.86,0.2,South,8.1,-,N/A,Fog,Light Freezing Fog,170,2011-12-14 10:53:00
4:24 AM,19.4,17.6,93,29.75,0.5,South,8.1,-,N/A,Fog,Light Freezing Fog,180,2011-12-14 11:24:00
4:42 AM,17.6,15.8,93,29.75,0.2,South,6.9,-,N/A,Fog,Light Freezing Fog,170,2011-12-14 11:42:00
4:53 AM,18.0,17.1,96,29.85,0.5,SSE,8.1,-,N/A,Fog,Light Freezing Fog,160,2011-12-14 11:53:00
5:25 AM,17.6,15.8,93,29.75,1.2,South,6.9,-,N/A,,Overcast,170,2011-12-14 12:25:00
5:39 AM,17.6,15.8,93,29.75,3.0,SSE,6.9,-,N/A,,Overcast,150,2011-12-14 12:39:00
5:53 AM,16.0,12.9,88,29.86,5.0,SSE,5.8,-,N/A,,Overcast,150,2011-12-14 12:53:00
6:18 AM,15.8,12.2,86,29.74,2.5,South,8.1,-,N/A,,Mostly Cloudy,170,2011-12-14 13:18:00
6:25 AM,15.8,12.2,86,29.74,7.0,South,6.9,-,N/A,,Mostly Cloudy,170,2011-12-14 13:25:00
6:32 AM,15.8,12.2,86,29.74,8.0,South,8.1,-,N/A,,Scattered Clouds,170,2011-12-14 13:32:00
6:53 AM,16.0,12.9,88,29.86,8.0,South,5.8,-,N/A,,Scattered Clouds,170,2011-12-14 13:53:00
7:53 AM,17.1,14.0,88,29.87,9.0,South,5.8,-,N/A,,Overcast,180,2011-12-14 14:53:00
8:53 AM,21.0,17.1,85,29.86,10.0,West,8.1,-,N/A,,Overcast,260,2011-12-14 15:53:00
9:53 AM,25.0,21.9,88,29.89,10.0,West,5.8,-,N/A,,Overcast,280,2011-12-14 16:53:00
10:53 AM,30.0,27.0,88,29.89,10.0,WNW,11.5,-,N/A,,Overcast,290,2011-12-14 17:53:00
11:53 AM,34.0,21.9,61,29.90,10.0,NW,20.7,-,N/A,,Overcast,310,2011-12-14 18:53:00
12:53 PM,33.1,18.0,54,29.94,10.0,NW,19.6,32.2,N/A,,Overcast,320,2011-12-14 19:53:00
1:53 PM,33.1,19.0,56,29.98,10.0,NW,21.9,27.6,N/A,,Overcast,310,2011-12-14 20:53:00
2:53 PM,33.1,16.0,50,30.02,10.0,NW,13.8,-,N/A,,Scattered Clouds,310,2011-12-14 21:53:00
3:53 PM,32.0,18.0,56,30.07,10.0,NW,15.0,21.9,N/A,,Overcast,310,2011-12-14 22:53:00
4:53 PM,30.9,19.0,61,30.11,10.0,NW,21.9,27.6,N/A,,Overcast,310,2011-12-14 23:53:00
5:53 PM,28.9,19.0,67,30.14,10.0,NW,21.9,29.9,N/A,,Overcast,320,2011-12-15 00:53:00
6:53 PM,28.0,19.0,69,30.17,10.0,NNW,20.7,28.8,N/A,,Overcast,330,2011-12-15 01:53:00
7:53 PM,27.0,19.0,72,30.20,10.0,NW,12.7,-,N/A,,Overcast,320,2011-12-15 02:53:00
8:53 PM,27.0,19.0,72,30.20,10.0,NW,9.2,-,N/A,,Overcast,310,2011-12-15 03:53:00
9:53 PM,26.1,18.0,71,30.20,10.0,West,6.9,-,N/A,,Overcast,280,2011-12-15 04:53:00
10:53 PM,27.0,19.9,75,30.20,10.0,WNW,8.1,-,N/A,,Overcast,290,2011-12-15 05:53:00
11:53 PM,28.0,19.0,69,30.20,10.0,WNW,10.4,-,N/A,,Overcast,300,2011-12-15 06:53:00